Weather History for KOLF - July, 2012

Change the Weather History Date:

Sunday, July 1, 2012

  Actual Average Record
Temperature  
Mean Temperature 75 °F -  
Max Temperature 95 °F 83 °F - ()
Min Temperature 55 °F 52 °F - ()
Degree Days  
Heating Degree Days 0    
Cooling Degree Days 10    
Growing Degree Days 24 (Base 50)    
Moisture  
Dew Point 57 °F    
Average Humidity 55    
Maximum Humidity 90    
Minimum Humidity 27    
Precipitation  
Precipitation T in 0.07 in - ()
Month to date precipitation T 0.07  
Year to date precipitation 6.15 6.48  
Sea Level Pressure  
Sea Level Pressure 29.74 in    
Wind  
Wind Speed 10 mph (East)    
Max Wind Speed 25 mph    
Max Gust Speed 33 mph    
Visibility 10 miles    
Events      
T = Trace of Precipitation, MM = Missing Value Source: NWS Daily Summary

Daily Weather History Graph

Daily Weather History Graph

Search for Another Location

Airport or City:

Trip Planner

Search our weather history database for the weather conditions in past years. The results will help you decide how hot, cold, wet, or windy it might be!

Date:

Astronomy

Jul. 01, 2012 Rise Set
Actual Time 5:06 AM MDT 9:05 PM MDT
Civil Twilight 4:25 AM MDT 9:46 PM MDT
Nautical Twilight 3:28 AM MDT 10:43 PM MDT
Astronomical Twilight 1:54 AM MDT 12:15 AM MDT
Moon 7:09 PM MDT (7/1) 2:59 AM MDT (7/1)
Length of Visible Light 17h 20m
Length of Day
15h 58m
Waxing Gibbous, 94% of the Moon is Illuminated
Jul 1
Waxing Gibbous
Jul 3
Full
Jul 10
Last Quarter
Jul 18
New
Jul 26
First Quarter

Hourly Weather History & Observations

Time (MDT) Temp. Heat Index Dew Point Humidity Pressure Visibility Wind Dir Wind Speed Gust Speed Precip Events Conditions
12:53 AM 60.1 °F - 54.0 °F 80% 29.88 in 10.0 mi NE 5.8 mph - N/A   Clear
1:53 AM 59.0 °F - 53.1 °F 81% 29.86 in 10.0 mi ENE 4.6 mph - N/A   Clear
2:53 AM 57.9 °F - 53.1 °F 84% 29.86 in 10.0 mi East 5.8 mph - N/A   Clear
3:53 AM 57.9 °F - 53.1 °F 84% 29.85 in 10.0 mi Calm Calm - N/A   Clear
4:53 AM 55.9 °F - 53.1 °F 90% 29.85 in 10.0 mi NE 8.1 mph - N/A   Clear
5:53 AM 57.2 °F - 53.6 °F 88% 29.88 in 10.0 mi ENE 3.5 mph - N/A   Clear
6:53 AM 62.1 °F - 55.9 °F 80% 29.84 in 10.0 mi ENE 8.1 mph - N/A   Clear
7:53 AM 68.0 °F - 57.9 °F 70% 29.83 in 10.0 mi East 9.2 mph - N/A   Clear
8:53 AM 73.9 °F - 60.1 °F 62% 29.81 in 10.0 mi East 13.8 mph - N/A   Clear
9:53 AM 82.0 °F 82.7 °F 61.0 °F 49% 29.78 in 10.0 mi East 11.5 mph - N/A   Clear
10:53 AM 88.0 °F 86.5 °F 55.9 °F 34% 29.75 in 10.0 mi ESE 12.7 mph 20.7 mph N/A   Clear
11:53 AM 91.0 °F 89.2 °F 55.9 °F 30% 29.74 in 10.0 mi ESE 12.7 mph 21.9 mph N/A   Clear
12:53 PM 93.0 °F 90.8 °F 54.0 °F 27% 29.72 in 10.0 mi East 17.3 mph 21.9 mph N/A   Clear
1:53 PM 93.0 °F 91.1 °F 55.0 °F 28% 29.70 in 10.0 mi ESE 19.6 mph 26.5 mph N/A   Clear
2:53 PM 93.0 °F 92.3 °F 59.0 °F 32% 29.67 in 10.0 mi ENE 23.0 mph 27.6 mph N/A   Clear
3:53 PM 93.0 °F 93.0 °F 61.0 °F 34% 29.65 in 10.0 mi East 24.2 mph 33.4 mph N/A   Clear
4:53 PM 93.0 °F 94.2 °F 63.0 °F 37% 29.62 in 10.0 mi ENE 21.9 mph 28.8 mph N/A   Clear
5:53 PM 88.0 °F 88.4 °F 62.1 °F 42% 29.61 in 10.0 mi ENE 25.3 mph 31.1 mph N/A   Clear
6:53 PM 88.0 °F 89.3 °F 64.0 °F 45% 29.61 in 10.0 mi East 25.3 mph 33.4 mph 0.00 in   Clear
7:53 PM 82.9 °F 84.0 °F 63.0 °F 51% 29.61 in 10.0 mi East 17.3 mph 26.5 mph N/A   Clear
8:53 PM 80.1 °F 81.1 °F 61.0 °F 52% 29.60 in 10.0 mi ENE 8.1 mph - N/A   Clear
9:53 PM 73.9 °F - 61.0 °F 64% 29.62 in 10.0 mi Calm Calm - N/A   Clear
10:53 PM 75.9 °F - 54.0 °F 46% 29.62 in 10.0 mi Calm Calm - N/A   Clear
11:53 PM 78.1 °F - 52.0 °F 40% 29.69 in 10.0 mi SW 6.9 mph - N/A   Clear